Change the Weather History Date:

Sunday, March 17, 2013

  Actual Average (KMHK) Record (KMHK)
Temperature  
Mean Temperature 36 °F 44 °F  
Max Temperature 41 °F 57 °F 82 °F (2009)
Min Temperature 30 °F 30 °F 21 °F (2014)
Degree Days  
Heating Degree Days 30 21  
Month to date heating degree days 418  
Since 1 July heating degree days 4578  
Cooling Degree Days 0 0  
Month to date cooling degree days 0  
Year to date cooling degree days 0  
Moisture  
Dew Point 32 °F    
Average Humidity 91    
Maximum Humidity 100    
Minimum Humidity 70    
Precipitation  
Precipitation 0.00 in 0.07 in 0.56 in (1998)
Month to date precipitation 1.31  
Year to date precipitation 3.03  
Sea Level Pressure  
Sea Level Pressure 29.90 in    
Wind  
Wind Speed 13 mph (ENE)    
Max Wind Speed 18 mph    
Max Gust Speed 22 mph    
Visibility 10 miles    
Events Rain    
T = Trace of Precipitation, MM = Missing Value Source: NWS Daily Summary

Daily Weather History Graph

Daily Weather History Graph

Search for Another Location

Airport or City:

Trip Planner

Search our weather history database for the weather conditions in past years. The results will help you decide how hot, cold, wet, or windy it might be!

Date:

Astronomy

Mar. 17, 2013 Rise Set
Actual Time 7:34 AM CDT 7:36 PM CDT
Civil Twilight 7:08 AM CDT 8:03 PM CDT
Nautical Twilight 6:37 AM CDT 8:34 PM CDT
Astronomical Twilight 6:05 AM CDT 9:05 PM CDT
Moon 10:51 AM CDT (3/17) 12:42 AM CDT (3/17)
Length of Visible Light 12h 54m
Length of Day
12h 01m
Waxing Crescent, 31% of the Moon is Illuminated
Mar 17
Waxing Crescent
Mar 19
First Quarter
Mar 27
Full
Apr 2
Last Quarter
Apr 10
New

Hourly Weather History & Observations

Time (CDT) Temp. Windchill Dew Point Humidity Pressure Visibility Wind Dir Wind Speed Gust Speed Precip Events Conditions
12:58 AM 33.3 °F 22.1 °F 27.9 °F 81% 30.07 in 10.0 mi NE 18.4 mph - N/A   Overcast
1:58 AM 32.9 °F 22.4 °F 28.2 °F 83% 30.07 in 10.0 mi NE 16.1 mph 20.7 mph N/A   Clear
2:58 AM 32.2 °F 21.8 °F 28.4 °F 86% 30.07 in 10.0 mi NE 15.0 mph - N/A   Mostly Cloudy
3:18 AM 32.0 °F 22.1 °F 28.4 °F 87% 30.04 in 10.0 mi ENE 13.8 mph - N/A   Overcast
3:58 AM 32.2 °F 21.4 °F 29.3 °F 89% 30.03 in 10.0 mi ENE 16.1 mph - N/A   Overcast
4:13 AM 32.0 °F 21.2 °F 28.4 °F 87% 30.00 in 10.0 mi ENE 16.1 mph - N/A   Mostly Cloudy
4:55 AM 32.0 °F 21.2 °F 32.0 °F 100% 29.97 in 10.0 mi NE 16.1 mph 21.9 mph N/A   Overcast
4:58 AM 31.6 °F 20.7 °F 30.9 °F 97% 29.99 in 10.0 mi ENE 16.1 mph 21.9 mph 0.00 in   Overcast
5:23 AM 32.0 °F 23.0 °F 32.0 °F 100% 29.98 in 10.0 mi NE 11.5 mph - N/A   Light Drizzle
5:28 AM 32.0 °F 22.1 °F 32.0 °F 100% 29.98 in 10.0 mi ENE 13.8 mph - N/A   Light Drizzle
5:29 AM 32.0 °F 22.5 °F 32.0 °F 100% 29.98 in 10.0 mi ENE 12.7 mph - N/A   Overcast
5:58 AM 31.3 °F 22.7 °F 31.3 °F 100% 30.02 in 10.0 mi NE 10.4 mph - 0.00 in   Overcast
6:58 AM 31.1 °F 23.1 °F 31.1 °F 100% 30.03 in 10.0 mi NE 9.2 mph - N/A   Overcast
7:08 AM 32.0 °F 23.6 °F 32.0 °F 100% 30.01 in 10.0 mi NE 10.4 mph - N/A   Overcast
7:13 AM 32.0 °F 24.8 °F 32.0 °F 100% 30.02 in 10.0 mi NE 8.1 mph - N/A   Overcast
7:28 AM 32.0 °F 23.0 °F 32.0 °F 100% 30.01 in 10.0 mi NE 11.5 mph - N/A   Overcast
7:58 AM 30.9 °F 21.7 °F 30.7 °F 99% 30.02 in 10.0 mi NE 11.5 mph - N/A   Overcast
8:58 AM 31.1 °F 22.4 °F 30.9 °F 99% 30.04 in 10.0 mi ENE 10.4 mph - N/A   Overcast
9:58 AM 32.0 °F 22.5 °F 31.6 °F 99% 30.01 in 10.0 mi NE 12.7 mph - N/A   Overcast
10:58 AM 33.1 °F 23.9 °F 31.8 °F 95% 30.01 in 10.0 mi NE 12.7 mph - N/A   Overcast
11:58 AM 34.7 °F 26.9 °F 31.6 °F 89% 29.99 in 10.0 mi ENE 10.4 mph - N/A   Overcast
12:58 PM 37.4 °F 29.3 °F 31.8 °F 80% 29.93 in 10.0 mi East 12.7 mph 18.4 mph N/A   Overcast
1:23 PM 37.4 °F 29.8 °F 32.0 °F 81% 29.90 in 10.0 mi East 11.5 mph - N/A   Overcast
1:58 PM 38.1 °F 31.7 °F 32.5 °F 80% 29.90 in 10.0 mi East 9.2 mph - N/A   Overcast
2:58 PM 39.7 °F 34.3 °F 32.5 °F 75% 29.87 in 10.0 mi ENE 8.1 mph - N/A   Overcast
3:18 PM 41.0 °F 35.2 °F 32.0 °F 70% 29.83 in 10.0 mi ESE 9.2 mph - N/A   Overcast
3:58 PM 40.8 °F 36.2 °F 32.5 °F 72% 29.83 in 10.0 mi East 6.9 mph - N/A   Overcast
4:33 PM 41.0 °F 33.5 °F 33.8 °F 76% 29.78 in 10.0 mi East 13.8 mph 18.4 mph N/A   Overcast
4:56 PM 41.0 °F 34.3 °F 32.0 °F 70% 29.77 in 10.0 mi East 11.5 mph - N/A   Overcast
4:58 PM 41.0 °F 34.7 °F 32.0 °F 70% 29.77 in 10.0 mi ENE 10.4 mph - N/A   Overcast
5:23 PM 41.0 °F 34.7 °F 33.8 °F 76% 29.75 in 10.0 mi ESE 10.4 mph - N/A   Overcast
5:58 PM 39.0 °F 31.8 °F 34.3 °F 83% 29.78 in 10.0 mi ESE 11.5 mph - N/A   Overcast
6:28 PM 39.2 °F 32.5 °F 33.8 °F 81% 29.76 in 10.0 mi ESE 10.4 mph - N/A   Overcast
6:58 PM 37.9 °F 29.2 °F 34.7 °F 88% 29.75 in 10.0 mi East 15.0 mph 18.4 mph N/A   Overcast
7:58 PM 37.0 °F 28.9 °F 35.2 °F 93% 29.77 in 10.0 mi East 12.7 mph - N/A   Overcast
8:58 PM 36.1 °F 30.6 °F 35.4 °F 97% 29.78 in 10.0 mi East 6.9 mph - N/A   Overcast
9:43 PM 35.6 °F 29.9 °F 35.6 °F 100% 29.78 in 10.0 mi East 6.9 mph - N/A   Overcast
9:58 PM 35.8 °F 29.4 °F 35.4 °F 99% 29.81 in 10.0 mi East 8.1 mph - N/A   Overcast
10:48 PM 35.6 °F 29.2 °F 35.6 °F 100% 29.77 in 10.0 mi East 8.1 mph - N/A   Overcast
10:58 PM 35.4 °F 29.0 °F 35.4 °F 100% 29.79 in 10.0 mi East 8.1 mph - N/A   Overcast
11:18 PM 35.6 °F 28.6 °F 35.6 °F 100% 29.76 in 10.0 mi East 9.2 mph - N/A   Overcast
11:43 PM 35.6 °F 31.7 °F 35.6 °F 100% 29.79 in 10.0 mi NE 4.6 mph - N/A   Overcast
11:48 PM 35.6 °F 31.7 °F 35.6 °F 100% 29.79 in 10.0 mi ENE 4.6 mph - N/A Rain Light Rain
11:58 PM 35.2 °F 31.2 °F 35.2 °F 100% 29.81 in 8.0 mi East 4.6 mph - 0.00 in Rain Light Rain